RH
18 18 17 17 17 17 16 16 15 15 15 14 14 13 13 12 11 11 11 11 10 9 9 8 8 8 9 9 9 9 9 9 9 10 10 10 10 10 11 11 11 11 11 11 11 11 11 12 11 14 14 14 14 14 13 10 14 9 30 81 98 89 88 100 102 101 103 93 96 78 43 47 52 50 60 60 45 41 42 31 20 17 18 21 22 21 19 14
17 17 17 17 16 16 16 15 15 14 15 14 14 13 13 13 12 12 11 11 10 10 9 9 9 8 9 8 9 9 9 9 9 9 9 10 10 10 10 10 11 10 11 11 10 11 10 11 10 11 13 14 14 13 14 12 12 9 20 52 73 66 68 98 103 102 107 91 99 89 49 44 52 52 58 62 50 41 43 35 22 18 21 24 24 22 19 15
17 17 16 16 16 16 15 15 15 14 14 14 13 13 13 13 12 12 11 11 10 10 10 10 9 9 8 8 8 8 9 9 8 8 8 9 9 9 9 9 10 9 10 10 10 10 10 10 10 11 11 12 15 14 13 13 11 11 11 23 50 54 67 106 102 102 105 81 90 89 55 46 52 54 57 63 55 43 43 36 25 18 22 26 25 24 20 17
17 18 17 17 16 16 15 14 14 14 14 13 13 13 12 12 12 12 11 11 11 10 10 10 10 9 9 9 8 8 8 9 8 8 8 8 8 8 8 8 9 9 9 9 10 10 9 10 9 10 11 10 12 14 14 14 12 13 10 14 38 51 69 98 100 106 95 71 88 83 55 50 55 56 55 64 60 46 46 38 27 19 24 29 26 26 22 20
18 17 17 17 16 16 15 15 14 14 13 13 13 12 12 12 11 12 11 11 11 10 10 10 10 9 9 9 9 9 8 8 8 8 8 8 8 7 8 8 8 8 8 9 9 9 9 9 9 9 10 10 11 12 14 14 13 13 11 12 23 48 81 99 94 82 56 51 82 83 67 58 56 61 55 63 66 50 46 40 29 21 23 30 28 28 25 23
18 17 17 17 16 16 15 15 14 13 13 12 13 12 12 12 11 11 11 11 10 10 10 10 10 9 9 9 9 9 8 8 8 8 8 8 8 8 8 7 8 8 8 9 8 9 9 8 9 9 9 9 10 10 12 13 14 13 12 12 12 35 77 92 68 37 33 66 93 87 86 78 60 63 60 62 70 54 47 44 31 22 23 30 30 30 29 26
18 17 17 17 16 16 15 15 14 13 13 12 12 12 12 11 11 11 10 11 10 10 10 10 10 9 9 9 9 9 8 9 8 8 8 8 8 8 9 8 8 8 8 8 8 8 8 8 8 9 9 9 9 9 11 12 14 14 12 13 15 30 56 67 51 28 41 73 86 79 82 85 66 62 66 64 70 59 48 47 34 24 22 28 31 31 32 29
19 18 18 17 17 16 15 14 13 13 12 12 12 11 11 11 11 11 10 10 10 10 10 10 10 9 9 9 9 8 8 8 8 9 8 8 8 7 8 8 8 8 8 8 8 8 7 8 8 8 9 8 9 9 10 10 12 14 14 12 13 27 40 45 40 32 42 44 57 83 83 79 74 72 74 68 73 63 50 49 38 28 21 26 32 30 33 31
19 19 18 18 17 16 16 15 14 14 13 13 12 11 11 10 10 10 10 10 9 10 9 9 9 9 9 9 9 8 8 8 8 8 8 8 8 8 8 7 8 8 9 9 8 8 7 8 7 8 9 8 9 8 10 10 10 12 13 16 15 24 27 25 26 22 38 37 40 87 99 85 82 79 78 78 83 66 51 52 41 32 22 22 31 31 33 32
21 20 20 19 18 18 18 17 16 16 15 14 13 13 12 11 11 10 10 9 9 9 9 9 9 9 9 8 9 8 8 8 8 8 7 8 7 8 8 7 8 7 8 9 8 9 7 7 7 8 8 7 9 7 10 8 10 12 9 16 20 27 23 19 27 16 28 32 25 71 104 96 89 87 82 82 92 73 51 53 44 35 25 20 29 32 32 31
22 21 21 21 20 20 19 18 17 16 15 15 14 13 13 12 12 11 11 10 9 9 8 9 8 8 8 8 8 8 8 8 8 8 7 8 7 7 8 7 8 7 8 8 8 9 8 8 6 7 7 7 8 7 10 8 10 11 9 17 22 27 23 18 26 17 22 19 19 72 105 99 95 99 90 71 87 83 55 55 49 38 27 21 28 32 33 30
24 24 23 22 21 20 19 18 17 17 16 15 14 13 13 12 12 11 11 11 10 10 9 9 8 8 8 8 8 8 8 8 8 8 7 8 7 7 7 7 7 7 8 7 8 8 8 8 7 8 7 7 8 7 9 8 10 9 9 20 27 30 23 21 27 27 33 18 27 84 106 101 100 104 94 68 81 85 60 57 52 42 30 22 28 31 32 30
26 25 25 23 22 21 20 19 18 18 16 15 15 14 14 13 12 12 11 11 11 10 11 10 9 9 8 8 8 8 8 8 8 8 8 8 7 8 7 7 7 7 7 7 8 8 7 8 8 9 8 7 7 7 8 8 9 10 9 14 22 29 24 30 37 33 35 23 42 94 104 100 103 102 89 66 79 83 65 62 53 46 34 22 28 32 30 29
28 27 26 24 23 22 21 21 19 18 18 17 16 15 15 14 13 12 12 11 11 11 11 10 11 10 10 9 8 8 8 8 8 7 7 7 7 7 7 7 7 7 7 7 7 7 7 7 8 8 8 9 7 7 8 7 9 8 10 13 18 28 30 34 42 44 39 32 60 100 104 101 102 100 84 66 81 84 68 64 55 50 40 25 27 32 29 28
30 29 27 26 25 24 23 22 21 20 19 18 17 16 15 15 14 13 13 12 11 12 11 11 11 10 10 10 9 9 8 8 8 8 8 7 8 7 7 7 7 7 7 7 7 7 7 7 7 8 8 9 8 8 7 7 9 8 8 13 17 24 29 33 51 61 39 36 79 102 99 102 98 100 94 78 84 83 70 65 58 51 42 29 26 31 30 25
31 30 28 28 27 26 25 23 22 21 20 20 18 18 17 16 15 14 13 13 12 12 12 11 11 11 11 10 11 10 9 10 9 9 9 8 8 7 8 7 7 7 7 7 7 6 7 7 7 7 8 8 8 8 8 7 7 9 8 10 16 17 19 27 47 56 28 35 88 103 100 98 82 95 105 92 92 92 79 67 58 52 44 34 26 29 30 26
31 30 29 29 28 27 26 25 24 23 22 21 20 19 18 17 16 15 14 13 13 12 12 12 11 11 11 11 11 10 10 10 10 10 9 9 9 8 8 8 7 7 7 7 7 6 6 6 7 7 7 7 9 8 8 9 6 8 8 9 16 18 22 24 30 40 25 33 73 90 102 93 67 85 104 99 101 102 90 72 59 51 47 38 27 29 30 26
32 31 30 30 29 28 27 26 25 24 24 23 22 20 19 19 17 16 15 14 13 13 13 12 12 12 11 11 11 11 11 10 10 10 9 10 9 9 9 8 8 7 7 7 6 7 6 6 7 6 7 6 7 8 7 8 7 7 7 8 10 17 25 21 29 46 24 24 68 93 103 96 82 93 103 101 100 101 100 83 62 53 51 42 28 28 30 27
32 31 31 31 29 28 27 27 26 26 25 24 23 22 21 20 18 17 16 16 14 14 13 13 13 13 12 12 12 11 11 10 11 10 10 10 9 10 9 8 9 7 7 7 6 7 6 6 7 5 7 6 6 8 7 8 8 7 8 8 9 22 36 25 30 56 44 43 83 104 101 98 99 94 93 103 100 100 104 88 69 59 52 45 32 27 28 29
33 33 32 31 30 29 28 28 27 26 26 25 24 23 22 20 20 18 17 17 16 15 14 14 13 13 13 13 12 12 11 11 11 10 10 10 10 10 9 9 9 8 8 7 7 7 6 6 7 6 6 6 7 6 7 7 7 8 7 8 8 22 55 56 41 55 70 78 91 104 102 99 102 81 72 99 104 99 103 96 85 66 52 50 39 29 27 29
34 34 33 31 30 29 29 28 28 27 26 26 25 24 23 22 20 20 19 18 17 16 15 15 14 14 14 13 13 12 12 12 11 11 11 10 10 10 10 10 9 9 8 8 8 7 7 7 6 7 6 6 7 6 7 7 6 9 7 10 8 7 33 61 68 66 66 72 76 87 84 73 80 62 51 89 106 99 100 101 96 74 56 55 46 34 28 28
35 34 32 32 31 30 30 29 28 28 28 27 26 25 24 23 22 21 20 19 18 17 16 15 15 14 14 14 14 13 13 13 12 12 12 11 11 11 10 11 9 10 9 8 9 7 7 8 6 7 6 6 7 5 7 6 6 8 6 8 10 7 9 24 54 60 48 53 56 60 57 43 57 64 66 93 104 100 99 97 99 89 69 60 53 41 30 27
35 34 33 32 32 32 31 30 29 29 29 29 27 26 25 24 23 22 21 20 19 18 17 16 15 15 15 14 14 14 13 13 13 13 13 12 12 12 12 11 11 11 10 9 9 9 8 7 7 7 6 6 6 6 6 6 6 7 8 8 6 10 9 6 20 29 38 55 53 60 73 67 75 89 95 101 100 100 98 94 99 101 86 66 58 50 36 29
35 34 33 33 33 33 33 31 30 30 30 30 28 28 27 25 23 22 22 22 20 19 18 17 16 16 16 15 15 15 14 14 14 14 14 13 13 13 13 12 12 11 11 11 10 10 9 8 8 7 7 7 6 6 6 6 7 5 6 8 7 8 8 9 10 9 29 50 54 76 99 98 97 101 102 101 100 99 94 97 103 102 94 74 60 56 44 34
35 34 33 34 34 34 33 32 31 31 31 30 30 29 27 24 22 22 23 22 22 20 19 18 17 16 16 16 16 15 15 15 15 15 14 14 14 14 14 13 13 13 12 12 11 11 10 9 9 8 8 7 6 6 6 6 6 6 6 5 8 9 6 9 9 7 18 29 49 86 106 101 98 104 102 84 79 84 85 96 105 102 100 87 68 60 51 40
34 35 35 35 35 34 33 33 32 32 31 31 31 30 27 24 22 22 22 22 23 21 20 18 17 17 17 16 17 16 16 16 16 17 16 17 16 16 16 14 14 14 13 13 12 12 11 10 10 9 9 8 7 7 6 7 5 5 7 6 6 8 7 9 9 9 9 14 43 81 100 102 102 104 86 55 51 66 82 97 103 101 101 99 87 68 57 49
35 36 36 35 35 34 34 34 33 32 32 32 32 29 26 24 22 22 22 23 24 22 21 19 17 18 17 17 17 16 18 19 20 22 22 22 22 21 20 19 18 17 16 15 14 13 12 11 11 10 10 9 8 8 6 6 7 5 5 6 6 6 7 8 9 11 7 11 32 58 80 91 105 103 66 56 70 65 79 102 104 103 95 96 102 79 59 55
35 35 36 36 35 35 35 34 34 33 33 32 31 28 25 24 23 22 23 24 25 24 23 22 21 22 22 23 22 22 23 25 27 28 28 28 28 28 27 25 24 22 20 19 18 17 14 13 12 11 11 10 9 9 8 6 6 6 5 5 6 5 7 8 8 10 8 9 16 37 64 68 90 104 65 72 101 69 75 106 103 107 99 91 104 93 72 60
35 34 36 36 35 35 35 35 34 33 33 31 30 27 25 24 23 22 23 24 26 25 25 28 30 32 34 35 33 33 34 34 35 35 34 33 32 31 31 30 28 26 25 23 21 21 18 17 15 13 12 11 10 9 9 9 6 6 6 5 6 5 6 6 7 9 8 11 8 23 55 54 68 99 71 75 104 70 69 100 93 98 104 96 102 103 92 69
35 35 35 36 36 35 35 34 34 32 30 29 28 26 25 24 23 23 22 24 26 26 26 31 36 39 42 43 42 42 42 41 40 38 37 36 35 33 32 31 30 28 27 25 24 22 21 20 18 16 15 12 11 10 8 9 7 6 6 5 6 5 6 6 7 9 7 12 9 10 35 41 50 81 68 65 97 85 78 96 90 90 101 101 100 105 102 77
36 35 35 35 35 34 33 32 31 29 27 27 26 25 25 23 23 23 22 23 25 26 26 31 37 41 44 45 45 45 44 43 41 39 39 37 36 35 34 33 31 30 28 26 24 23 21 21 20 18 18 15 13 12 10 10 8 8 7 5 6 5 5 6 5 8 7 9 11 6 15 27 39 66 65 61 92 102 92 98 99 97 98 95 96 104 100 79
34 33 32 33 33 31 29 28 27 26 25 25 25 25 24 23 22 22 22 23 25 25 26 29 34 40 44 46 45 45 44 43 42 41 40 40 38 37 37 35 33 31 30 27 25 23 21 21 20 18 18 17 16 13 11 11 9 8 8 6 7 5 5 7 5 7 8 7 10 8 8 15 24 41 47 55 90 104 90 93 103 103 96 86 90 104 101 85
32 33 32 31 31 30 28 26 25 25 24 24 25 24 23 22 22 22 22 23 24 25 26 27 31 37 43 46 46 46 45 44 45 44 42 42 41 41 40 38 36 34 31 29 25 23 22 20 19 18 18 17 16 16 14 12 10 9 9 7 7 5 5 6 5 6 7 7 8 10 11 10 12 24 29 46 89 105 88 88 101 103 95 83 84 94 95 86
41 39 38 37 36 33 29 26 24 25 24 24 24 23 22 22 22 22 22 23 24 24 25 26 28 33 40 46 47 47 47 46 46 46 46 45 43 42 43 40 38 37 34 31 27 22 22 21 18 17 18 17 15 16 15 14 12 10 9 8 7 6 5 5 6 5 6 7 7 10 14 9 8 20 25 35 75 106 97 88 96 100 92 83 84 85 78 74
58 55 51 48 46 41 35 28 24 25 24 23 24 23 22 22 23 22 21 22 22 23 25 25 25 28 33 41 47 49 51 50 49 47 46 47 45 43 47 47 43 42 39 35 30 25 23 22 21 18 18 18 16 16 15 14 14 12 10 9 7 7 6 5 6 5 5 6 6 8 13 14 9 13 24 28 55 99 106 93 99 101 91 83 85 89 77 66
70 69 67 61 57 53 47 37 27 23 25 23 22 23 23 22 22 22 21 21 22 23 24 24 24 25 27 33 42 48 52 53 52 51 47 47 47 46 50 52 48 45 44 39 33 29 25 24 23 22 22 22 18 17 16 14 14 13 12 10 8 8 7 6 5 5 6 5 7 7 8 14 10 7 23 27 42 90 105 94 104 104 93 88 82 86 79 58
69 71 74 74 68 63 58 51 38 27 23 23 23 23 24 24 23 22 21 21 22 23 23 24 25 24 24 26 31 37 44 51 52 49 48 47 47 49 54 54 51 47 45 44 40 34 29 28 28 27 25 25 23 20 18 16 14 13 12 11 9 9 7 7 6 5 6 5 6 8 5 10 11 7 17 16 31 83 103 96 104 96 91 96 80 74 75 55
65 66 72 76 74 71 66 60 53 40 29 23 24 26 25 27 27 24 23 21 21 22 22 22 23 24 24 22 25 29 33 41 46 42 44 47 47 50 56 55 52 49 48 49 47 41 33 30 32 31 28 27 25 22 19 17 16 14 14 11 10 10 9 8 8 5 7 6 4 8 6 7 12 12 16 13 23 67 97 101 102 91 92 101 81 68 74 65
61 62 70 74 73 75 73 69 64 55 43 31 25 27 28 30 33 31 28 26 23 21 20 21 21 22 22 20 23 27 25 28 34 35 38 44 47 52 58 56 53 52 54 56 53 46 38 34 36 34 29 27 25 23 21 20 18 16 15 13 11 11 10 8 9 6 6 7 4 7 7 6 11 12 14 18 21 43 78 98 102 96 93 92 78 68 71 71
57 57 68 73 70 71 75 79 76 65 56 47 35 30 30 32 37 38 37 36 32 26 23 22 21 21 21 20 20 23 24 24 26 30 35 40 48 57 60 57 55 55 59 62 57 49 43 39 37 33 29 27 24 23 23 20 20 18 15 15 12 11 11 9 10 8 6 7 5 6 7 5 9 11 10 20 25 27 49 81 102 102 87 77 74 64 57 63
57 55 66 71 66 68 73 77 82 78 68 59 48 42 38 36 37 40 43 44 43 40 35 29 26 24 22 22 21 21 24 25 23 28 36 45 57 66 63 56 56 60 66 68 62 52 45 41 37 33 31 29 26 25 25 21 21 20 16 16 14 12 12 11 11 11 7 7 6 5 8 6 8 13 8 15 30 30 33 61 96 105 91 82 82 66 46 47
52 55 69 70 59 64 72 70 75 82 79 68 60 58 53 45 43 45 46 47 48 49 47 42 39 35 30 28 27 25 27 29 30 35 42 51 62 68 63 55 55 65 73 73 66 54 44 40 38 35 32 31 29 27 26 23 21 21 19 17 16 14 14 14 14 14 9 8 7 6 7 7 14 23 14 9 27 37 34 50 84 102 100 98 98 82 54 40
40 45 62 69 58 58 69 69 66 74 80 77 73 73 67 57 52 52 52 51 53 54 53 51 51 49 44 40 38 34 34 35 37 44 48 51 58 59 56 54 58 70 77 75 66 52 44 43 42 39 35 33 32 29 27 25 22 22 21 18 17 16 16 16 14 13 11 9 8 7 6 7 14 26 23 11 17 30 38 54 79 97 103 104 106 97 70 43
37 35 43 58 60 58 65 69 66 68 74 75 76 80 81 73 64 63 64 59 56 57 59 58 57 56 55 57 55 47 44 43 40 43 45 46 48 49 50 57 68 79 79 72 61 49 47 50 45 42 40 36 35 32 29 27 24 23 22 19 18 17 17 17 14 13 12 10 8 8 7 7 11 22 26 17 15 22 32 50 74 95 103 103 104 102 80 48
39 34 33 42 52 59 66 67 64 68 70 70 73 75 79 78 72 74 80 76 68 65 66 64 62 64 67 70 69 63 62 61 55 53 54 54 56 59 67 76 84 90 82 66 57 49 49 54 49 44 44 40 38 38 33 28 26 25 22 21 19 18 18 17 15 15 13 11 10 8 8 9 10 16 18 14 20 23 21 36 69 96 103 99 99 102 90 59
41 35 33 35 39 51 69 69 63 67 68 69 74 70 69 76 77 78 88 93 86 76 73 72 72 76 77 77 77 76 78 77 74 74 77 80 80 83 96 98 89 92 85 59 50 53 53 55 52 46 44 42 41 42 38 31 28 26 24 23 20 19 19 17 17 18 15 14 12 7 12 17 14 19 21 16 22 25 19 32 67 94 100 98 99 96 96 85
44 36 33 36 35 41 61 67 60 63 68 71 75 69 68 78 81 81 87 89 84 81 81 76 73 74 69 63 64 68 76 82 83 85 88 93 90 88 104 107 88 86 84 56 44 55 59 57 54 48 45 45 45 45 42 35 31 28 27 25 22 20 20 18 19 22 18 18 17 9 13 20 18 22 25 20 26 38 37 34 53 84 99 101 98 88 91 102
45 39 33 35 36 36 46 58 63 70 73 71 72 72 73 77 77 76 78 74 70 78 78 62 58 62 54 50 55 59 68 77 78 79 83 92 96 92 99 104 93 84 72 51 46 55 58 56 54 50 48 49 48 46 43 38 34 31 29 28 24 21 21 18 18 25 23 21 23 15 11 20 18 13 18 22 27 39 47 38 35 65 97 101 98 94 94 101
44 40 33 32 38 35 34 48 66 75 73 68 71 77 77 74 69 62 65 64 55 60 66 51 43 50 46 44 50 54 65 72 70 73 79 84 93 98 93 88 93 86 57 41 52 56 52 54 53 50 50 51 50 48 44 41 37 33 31 30 27 22 23 22 18 24 27 21 21 16 12 21 21 10 16 29 26 24 38 43 30 42 81 99 98 98 96 97
43 39 34 31 35 32 28 45 70 79 76 70 71 78 77 75 69 55 54 59 45 41 56 48 33 37 40 39 43 52 64 66 59 65 77 81 86 96 91 73 77 79 50 37 54 56 49 53 52 49 50 51 54 53 49 44 40 37 33 31 31 25 25 28 23 25 31 25 21 19 12 15 20 16 15 21 28 26 30 48 45 37 67 97 99 97 98 100
41 35 34 30 30 29 28 47 74 83 80 74 71 77 78 76 73 58 51 58 48 37 44 39 27 31 39 39 42 49 53 50 48 53 68 81 85 90 90 66 50 55 46 39 50 52 49 51 50 49 50 51 55 56 54 50 44 41 36 31 34 29 25 33 32 29 34 32 25 22 16 11 16 22 15 10 26 33 29 53 63 43 61 98 102 94 94 100
38 33 32 26 28 30 30 53 82 85 82 79 72 74 79 77 76 68 59 61 57 42 34 30 27 32 37 37 36 37 37 42 50 53 58 74 81 77 74 54 35 40 46 45 48 48 49 52 52 53 51 49 54 55 55 56 50 46 40 31 33 34 32 38 37 30 33 35 29 26 24 19 13 13 13 8 17 28 39 69 72 42 59 102 105 94 92 97
Wind_Speed
12 13 13 14 15 16 17 18 18 19 19 20 21 21 22 23 24 25 26 27 28 30 32 34 35 36 37 37 38 38 39 39 39 39 39 39 39 39 38 38 38 37 37 36 35 34 33 32 30 29 28 26 24 22 20 18 16 15 12 10 10 9 11 14 12 9 8 7 7 11 12 12 13 14 15 18 20 22 23 24 24 24 22 21 21 20 20 17
13 14 15 16 17 18 19 19 20 20 21 21 21 22 22 23 24 24 25 26 27 28 29 31 33 34 36 37 37 37 38 39 39 39 39 39 39 39 39 38 38 38 38 37 37 36 35 33 31 30 30 28 27 25 22 21 18 17 16 13 12 12 13 14 12 10 9 9 8 11 12 12 13 13 13 16 19 20 22 23 24 23 22 21 21 20 20 19
14 15 16 17 18 19 20 21 21 22 22 23 23 23 24 24 25 25 25 26 26 27 27 29 30 31 33 35 36 37 37 38 39 39 39 39 39 39 39 39 38 38 38 38 38 38 37 35 34 32 31 30 29 28 25 24 21 19 18 14 12 15 15 13 11 11 10 9 9 11 12 11 12 13 12 15 17 19 21 22 23 23 22 21 21 21 20 19
16 17 18 19 20 21 22 22 23 23 24 24 25 25 26 26 26 27 27 27 27 27 27 27 28 29 31 32 34 35 36 37 38 39 39 39 39 39 39 39 39 38 38 38 38 38 38 36 35 34 33 31 31 30 28 27 24 22 20 17 15 16 16 14 12 12 11 9 9 10 11 11 12 12 11 13 16 18 20 22 22 22 21 21 22 21 20 20
19 20 20 21 22 23 24 25 25 26 26 26 27 27 27 28 28 28 28 28 28 28 28 28 28 28 29 30 31 32 34 36 37 38 38 38 38 38 38 39 39 39 39 39 39 39 39 37 37 36 35 33 32 31 31 29 27 24 22 21 19 15 15 16 14 13 13 11 10 9 11 11 10 11 10 11 14 16 19 21 21 21 21 20 21 22 21 21
21 22 23 24 25 26 27 28 28 29 29 29 29 29 30 30 30 30 30 30 30 30 29 29 29 29 29 29 30 30 32 33 34 36 37 38 38 38 38 38 38 38 39 39 39 39 39 38 38 37 36 35 34 33 32 31 29 27 25 24 23 20 17 18 18 17 15 13 10 8 10 10 8 9 9 10 12 15 17 19 21 21 20 20 21 22 22 21
24 24 25 26 27 28 29 30 31 31 31 32 32 32 32 33 33 33 33 33 32 32 31 31 31 31 30 30 30 30 30 31 32 33 35 36 37 38 38 38 38 38 39 39 39 40 39 39 38 37 37 36 36 35 33 32 31 29 28 27 25 23 21 18 18 18 16 14 11 11 11 9 8 8 8 8 10 13 15 18 20 20 20 19 20 22 22 22
25 26 27 28 29 29 30 31 32 32 33 33 34 34 35 35 36 36 36 35 35 34 34 33 33 33 32 32 31 31 30 30 31 31 32 34 35 36 37 38 38 38 38 39 39 40 40 39 39 38 38 38 37 36 35 34 33 32 31 29 27 25 23 20 18 18 17 16 14 13 13 10 8 7 6 7 9 11 14 16 18 19 19 19 20 21 22 22
26 27 28 29 29 30 31 32 32 33 33 33 34 34 35 36 37 37 38 38 38 37 36 36 35 35 34 34 33 33 32 32 31 31 31 32 33 34 35 37 38 38 38 39 39 40 40 39 39 39 39 39 37 36 36 36 34 34 32 30 28 27 25 22 21 20 18 19 17 16 14 11 9 8 7 7 8 10 12 14 16 18 18 18 19 20 21 22
27 28 29 30 30 31 31 32 32 32 32 32 32 33 33 34 35 37 37 38 39 39 39 38 38 37 36 36 35 35 35 34 33 32 31 31 31 32 33 34 36 37 38 38 39 39 40 39 39 39 39 38 38 37 37 37 36 35 34 32 30 29 28 25 24 24 22 22 20 18 16 13 11 10 8 7 8 8 10 12 14 17 17 17 18 19 21 22
29 29 30 30 31 31 32 32 32 32 32 31 31 31 31 32 33 34 35 36 38 39 40 40 39 39 38 38 37 37 37 36 35 34 33 32 32 31 32 32 34 35 36 37 38 39 40 39 38 38 38 38 39 38 38 37 37 37 35 33 32 31 30 28 27 27 25 24 22 20 18 14 12 12 9 7 7 7 8 11 13 15 16 16 17 18 19 21
30 31 31 31 31 31 32 31 31 31 31 30 30 29 29 30 30 31 32 33 34 36 38 40 40 40 40 40 39 39 38 38 37 36 35 34 33 32 32 32 32 33 34 35 36 38 39 39 39 38 38 39 39 39 39 38 38 38 37 35 34 32 30 30 30 29 26 24 23 21 19 15 14 14 11 8 6 5 7 9 11 14 15 15 15 17 18 20
31 32 32 32 32 32 31 31 31 30 30 29 29 28 28 28 29 29 29 30 31 32 35 37 39 40 41 41 40 40 39 39 39 38 38 37 36 34 34 33 33 33 33 34 35 36 37 38 39 39 39 39 39 39 39 40 39 39 39 38 37 34 31 31 32 31 28 25 23 21 19 16 15 16 12 8 6 4 5 6 8 11 13 13 14 15 17 19
33 33 33 33 32 32 32 31 30 30 29 29 28 28 28 27 28 28 28 28 29 29 31 33 35 37 39 41 41 41 40 40 39 39 39 39 38 37 36 35 34 34 34 34 34 34 36 37 39 39 39 40 40 40 40 41 41 40 41 40 39 37 34 32 33 32 29 25 22 20 19 18 18 17 13 10 8 6 5 5 5 8 11 12 12 14 15 17
34 34 34 34 33 33 32 32 31 30 30 29 28 28 28 27 27 27 27 27 27 28 28 30 31 34 36 38 40 41 41 41 40 40 40 40 39 39 38 38 37 36 35 35 34 34 34 36 37 38 40 41 41 41 41 42 42 42 42 42 41 39 37 35 34 31 29 26 23 20 19 20 20 18 13 11 11 8 6 5 4 5 9 10 10 12 14 16
35 35 35 35 35 34 34 33 32 32 31 30 29 28 28 27 27 26 26 26 26 26 27 28 29 30 33 35 38 39 40 41 40 40 40 40 40 40 40 40 39 39 38 36 35 35 35 35 36 37 39 41 42 43 43 43 43 43 43 43 42 41 40 39 36 33 30 28 26 24 23 21 20 17 14 12 12 11 9 7 4 3 6 8 9 10 12 14
37 37 37 37 36 36 35 35 34 33 32 32 31 30 28 27 27 26 25 25 25 25 26 26 27 28 30 32 35 37 39 40 40 40 40 41 41 41 41 41 41 40 39 39 38 37 36 36 36 37 38 41 42 44 44 44 44 44 44 44 43 42 42 41 39 35 33 32 29 27 26 23 20 18 15 14 15 13 11 10 5 2 4 6 7 8 10 12
38 38 38 38 38 37 37 36 35 35 34 33 32 31 29 28 27 26 25 24 24 24 25 25 26 27 28 30 32 34 36 38 39 40 40 40 41 41 41 42 42 41 41 41 40 39 38 38 37 37 38 40 42 43 44 44 44 45 45 44 44 44 43 42 40 37 37 36 30 25 25 22 20 20 18 16 17 14 13 12 7 3 3 5 5 6 8 10
40 40 40 40 39 39 38 37 37 36 36 35 33 32 30 28 26 25 24 24 24 23 24 24 25 26 27 28 30 32 34 36 37 39 39 40 41 41 41 42 42 42 42 42 41 41 40 40 39 39 39 39 41 42 44 44 45 46 45 45 46 45 43 44 43 39 37 36 32 28 26 22 21 22 20 19 19 16 14 13 9 6 4 4 5 5 6 8
41 41 41 41 41 40 39 38 38 37 36 35 34 32 30 28 26 25 24 23 23 22 23 23 24 25 26 27 29 30 32 34 35 37 38 39 40 40 41 42 42 42 42 42 43 42 42 42 41 41 40 40 40 41 43 44 44 45 46 47 48 47 45 45 46 42 38 36 34 32 29 24 23 24 22 21 21 19 15 13 12 9 6 4 5 5 4 6
42 43 43 43 42 41 40 39 38 37 37 35 34 32 30 28 26 24 23 22 22 22 22 22 23 24 25 26 27 28 30 32 34 35 36 38 39 40 41 41 42 42 42 43 43 43 43 43 43 43 42 41 41 41 42 44 45 46 48 49 50 51 50 48 46 45 42 40 37 34 31 28 26 27 26 23 23 23 19 16 15 12 8 6 6 6 4 3
44 44 44 43 43 42 41 40 39 38 37 35 33 32 30 27 25 24 23 21 21 21 21 22 22 23 23 24 26 27 28 30 32 33 35 36 37 38 39 40 41 41 42 43 43 43 44 44 44 44 43 43 42 42 43 44 45 46 48 50 51 52 53 52 49 47 45 44 41 37 35 32 29 28 28 25 26 27 23 20 17 14 11 8 7 7 6 4
45 45 44 44 43 43 42 41 39 38 36 35 33 31 29 27 25 23 22 21 20 20 20 21 21 22 22 23 24 26 27 28 30 31 33 34 35 36 37 38 39 40 41 42 43 43 44 45 45 45 45 44 44 43 44 44 45 46 48 50 52 53 54 53 52 50 47 45 42 37 35 35 32 29 27 26 28 28 25 22 19 16 14 11 9 8 7 6
45 45 44 44 43 43 42 41 39 37 36 34 33 31 29 27 24 23 21 20 20 20 20 20 20 21 21 22 23 24 25 26 27 28 30 31 32 34 35 36 37 38 39 40 41 42 43 44 45 45 45 45 45 45 45 45 45 46 47 50 52 54 53 52 53 53 50 47 43 39 38 36 34 32 30 29 29 28 26 24 21 19 17 14 11 9 8 7
45 45 44 43 43 42 41 40 38 37 35 34 33 31 29 27 24 22 20 19 19 19 19 19 20 20 20 21 22 23 24 24 24 26 27 28 29 30 31 33 34 35 36 38 39 40 42 43 44 45 45 46 46 46 46 46 46 47 48 50 51 53 54 53 54 54 53 51 47 46 43 38 36 35 34 34 32 29 28 26 24 21 18 16 13 11 9 8
44 44 44 43 42 41 40 39 37 36 35 33 32 31 29 27 23 21 20 19 18 18 19 18 19 19 19 20 21 22 22 22 23 23 24 25 26 27 28 29 30 31 33 35 36 37 40 41 42 44 45 46 46 47 47 47 48 49 49 48 50 52 53 52 52 54 56 54 52 52 48 43 39 37 37 37 35 32 31 29 27 25 21 18 16 13 11 9
44 43 43 42 41 40 39 38 36 35 34 33 32 30 28 26 23 20 19 19 17 17 18 18 17 18 18 19 20 20 21 21 22 22 23 23 24 24 25 26 27 28 29 31 32 35 37 39 40 42 44 45 46 47 48 48 49 50 48 48 50 50 51 51 53 56 58 57 56 54 53 49 45 41 39 38 37 36 33 31 30 29 25 21 18 16 14 12
43 42 41 40 39 38 37 37 36 35 34 33 32 30 28 26 23 20 18 18 17 17 18 18 17 16 17 18 19 19 20 21 21 21 22 22 22 22 23 24 25 26 27 28 29 32 34 35 37 40 42 44 46 47 49 49 50 49 47 48 49 49 52 54 56 59 60 60 59 56 54 54 50 45 41 39 41 40 35 32 32 31 28 24 20 19 17 15
41 40 39 39 38 37 37 36 36 35 34 33 31 29 27 26 24 21 18 18 17 18 19 19 17 17 17 18 18 19 19 20 20 20 21 21 21 21 22 22 23 24 26 26 28 30 31 33 35 37 39 41 44 46 48 49 50 48 47 50 51 51 54 55 57 61 60 59 61 59 56 55 53 49 43 42 44 42 37 34 34 34 30 26 23 22 20 18
40 39 38 37 38 37 37 36 36 35 33 32 30 28 27 26 24 22 19 17 18 20 22 22 20 19 19 19 19 20 20 20 20 20 20 20 20 21 21 22 23 24 25 26 28 29 30 31 33 34 36 38 41 44 46 49 49 49 50 51 52 53 54 55 57 61 60 59 62 62 59 57 56 51 46 44 45 43 41 37 36 37 34 29 26 24 23 21
38 38 37 37 37 37 36 36 35 34 33 30 29 28 27 26 24 23 20 17 18 21 23 24 24 23 22 22 21 21 21 21 21 21 20 20 20 21 21 22 23 24 25 26 27 28 29 31 32 33 35 36 39 42 44 47 49 50 51 51 52 53 54 55 57 59 59 61 63 63 61 60 58 53 47 46 46 46 44 40 39 40 38 33 29 27 26 24
36 37 37 36 36 36 35 35 34 33 31 29 28 27 26 26 24 23 21 18 19 21 24 27 27 26 24 24 24 23 23 22 22 21 21 20 21 21 22 23 24 25 26 27 28 28 29 30 32 33 34 36 38 40 41 44 47 50 51 52 53 54 54 55 56 58 60 62 63 63 62 62 61 57 52 49 48 49 47 43 41 42 41 37 33 30 29 27
34 35 35 34 34 34 33 33 32 31 30 27 27 26 25 24 23 22 20 19 20 21 24 27 29 29 27 26 26 25 25 24 23 22 21 21 22 22 23 24 25 26 27 28 29 29 29 31 32 32 34 36 38 39 41 43 45 48 51 52 54 54 54 56 57 59 61 62 62 63 62 63 61 59 57 54 51 49 49 47 43 43 43 41 37 35 34 31
34 34 34 33 32 32 31 31 30 29 28 27 25 24 23 22 21 21 20 20 21 21 23 27 30 31 30 29 28 27 26 25 24 24 23 23 23 23 24 25 26 27 29 30 31 30 30 32 33 32 34 37 38 40 42 43 44 46 49 52 55 55 55 57 58 59 61 61 62 62 62 63 62 61 60 58 55 51 49 49 47 46 45 43 40 39 37 33
34 34 33 32 31 30 30 30 29 28 27 26 24 23 22 20 19 20 19 19 20 20 23 26 29 31 32 31 31 30 29 28 27 26 25 24 25 24 24 26 27 28 30 32 33 33 32 33 33 33 34 37 38 40 43 44 44 46 48 51 54 56 56 57 57 59 61 61 61 63 62 63 64 63 62 59 58 53 47 49 52 51 48 46 43 42 38 34
35 35 34 33 32 31 30 29 28 26 25 25 23 21 20 19 18 19 18 17 18 20 22 24 27 30 32 33 33 33 31 30 29 28 27 26 26 25 25 27 29 29 31 34 35 36 35 34 34 34 34 36 38 40 42 44 46 47 48 49 53 55 56 56 57 58 60 60 60 62 64 64 64 65 64 60 59 56 49 49 55 55 52 48 46 44 41 37
35 35 34 35 34 33 31 29 27 26 25 24 23 21 20 18 17 17 16 15 15 18 20 22 25 28 30 33 34 35 34 33 32 31 29 28 27 26 26 28 30 31 32 35 36 37 36 34 33 33 34 35 37 39 42 44 46 47 48 49 51 54 55 57 58 59 60 61 62 64 64 64 64 65 65 62 62 62 54 52 56 58 54 52 49 46 44 40
37 35 34 35 34 34 33 31 29 27 25 25 23 22 21 18 17 16 14 14 14 16 17 20 22 25 28 30 31 34 36 35 35 34 30 30 29 27 28 29 31 31 33 35 37 37 37 33 31 32 32 33 35 37 40 42 44 46 49 50 51 53 55 57 59 59 60 62 65 65 65 65 65 65 66 65 66 68 60 54 57 59 55 53 52 48 45 42
40 37 35 35 34 33 33 32 31 29 27 26 24 23 22 20 19 17 15 14 15 15 16 17 19 22 25 25 26 32 36 35 35 34 31 31 30 29 30 31 31 32 33 36 37 37 36 31 28 29 29 31 33 35 36 40 42 45 48 50 52 53 55 57 59 60 61 62 64 65 65 65 66 67 68 68 68 70 67 58 56 59 57 54 53 51 48 46
44 39 38 38 35 33 32 31 32 32 30 29 27 26 25 23 22 21 18 17 17 17 16 16 17 19 21 22 24 28 33 34 33 33 32 32 30 30 31 32 32 33 33 36 37 35 32 28 25 26 28 30 32 32 34 38 40 43 46 49 51 54 55 56 59 60 62 63 64 66 66 66 67 68 70 68 66 70 71 64 57 58 58 56 55 54 51 49
47 43 41 41 38 34 33 32 32 33 33 33 31 29 29 28 26 25 24 22 21 20 20 19 19 20 20 22 22 23 28 33 32 31 32 31 30 31 34 33 32 33 33 35 36 31 26 24 24 25 27 29 29 30 33 36 38 40 43 46 49 52 54 56 58 61 62 63 64 66 68 67 66 67 69 70 67 69 72 67 59 57 58 57 57 57 53 50
48 45 44 46 42 36 35 34 33 33 33 34 34 33 34 33 30 29 29 28 26 25 25 24 23 23 23 24 23 22 27 31 31 31 32 30 30 33 36 36 33 33 34 34 33 28 22 22 24 25 26 27 28 29 32 34 35 37 40 42 45 49 52 56 59 61 63 64 65 67 68 67 66 64 68 71 70 70 72 68 61 58 58 58 57 58 56 52
49 45 45 49 46 39 37 37 34 33 33 33 34 35 37 37 35 34 34 33 30 30 30 29 28 28 28 28 27 27 29 31 31 33 34 32 31 33 36 38 35 33 34 33 29 24 21 22 24 25 25 25 26 28 29 31 33 34 37 40 43 45 49 54 60 62 64 64 66 68 68 68 68 64 65 72 72 71 71 67 61 57 58 60 57 57 58 55
55 48 44 48 49 44 41 40 37 34 33 32 32 33 35 38 38 37 38 38 36 34 34 33 33 33 32 32 33 33 32 33 34 36 36 34 33 34 36 38 36 35 34 30 25 22 21 23 25 25 25 25 25 25 26 28 30 32 35 38 40 42 45 51 57 62 65 66 66 68 68 68 69 67 67 71 72 72 72 68 62 58 57 60 58 54 57 58
62 55 47 46 49 48 45 43 39 36 34 33 32 32 33 35 36 36 37 39 39 37 37 36 35 35 35 35 37 36 36 37 38 38 37 36 35 35 36 38 37 35 34 28 23 21 21 24 25 25 25 25 23 23 25 26 27 30 33 35 37 39 42 47 53 59 65 66 66 68 68 67 69 68 68 70 70 73 74 70 64 61 60 60 56 47 47 56
65 61 53 48 47 48 49 47 41 38 36 33 32 32 32 33 34 34 34 37 38 37 36 36 35 34 34 34 35 35 36 38 40 40 39 38 39 36 35 39 37 34 32 26 21 21 22 24 25 25 25 24 23 23 24 24 25 28 30 32 35 37 39 43 49 55 62 66 68 68 67 67 68 66 66 69 70 71 74 71 65 63 64 61 54 44 39 47
66 64 58 51 47 47 52 51 44 39 37 35 34 32 31 32 32 32 32 33 33 32 33 33 31 31 32 31 31 32 33 35 37 38 38 40 40 36 34 38 36 32 30 25 20 21 23 24 24 24 23 23 22 23 23 23 24 25 27 30 32 34 37 41 46 52 59 64 68 69 68 69 70 69 67 70 71 68 69 74 71 64 64 63 57 49 41 39
68 66 61 53 48 48 52 52 45 41 39 36 34 32 31 31 31 30 29 28 27 27 29 30 28 29 30 30 30 31 31 32 34 34 35 35 36 35 33 35 34 31 28 23 20 21 22 22 23 22 22 22 22 23 22 22 23 23 24 27 30 31 35 39 43 49 56 62 67 70 71 70 72 74 71 71 73 66 63 72 75 68 65 64 61 55 44 39
68 67 61 53 49 50 51 51 47 43 41 37 34 32 31 31 30 27 25 25 24 24 26 29 28 28 30 30 30 31 30 32 33 33 33 32 31 33 33 32 31 30 25 21 20 21 20 20 20 20 20 20 21 22 22 22 22 22 23 25 27 30 33 37 42 46 52 60 66 71 73 72 72 75 74 71 71 69 65 68 72 72 69 66 65 62 49 42
67 65 60 54 50 50 50 50 49 44 42 38 34 33 32 30 29 27 23 24 26 23 24 29 28 26 28 29 29 29 30 32 32 31 30 30 29 30 31 29 26 26 24 18 18 20 18 17 18 17 18 19 19 21 22 21 21 21 21 22 25 28 31 36 41 45 50 57 65 72 74 73 73 74 76 74 72 72 71 67 67 74 73 65 66 69 57 45
65 61 57 52 49 48 49 51 50 45 42 39 35 34 32 29 29 28 24 24 26 24 25 28 26 23 26 28 28 29 31 31 29 27 26 27 29 29 28 26 23 23 22 18 17 18 17 16 16 16 16 17 18 19 20 21 20 20 21 21 23 25 29 34 39 44 49 55 64 72 75 74 76 76 76 77 74 72 72 67 64 72 70 60 61 68 63 56
62 58 54 50 48 48 48 51 50 46 43 40 36 34 32 29 29 29 26 24 25 26 27 27 24 23 25 28 27 26 26 25 26 26 24 25 28 27 25 24 21 20 20 18 17 17 17 16 15 14 15 15 16 18 19 20 20 20 21 21 21 22 27 34 40 44 49 56 64 71 74 75 77 77 76 78 77 73 70 65 63 70 69 59 60 65 66 66
Wind_Direction
255 257 258 259 260 261 262 262 263 262 263 262 262 261 260 258 256 254 252 251 250 249 248 247 246 244 244 243 243 243 243 242 241 241 241 241 241 241 240 240 240 240 239 238 237 235 235 235 234 233 231 229 228 227 225 224 223 224 230 243 257 265 271 272 271 274 277 291 320 334 344 346 345 352 353 353 355 360 4 3 6 10 7 9 9 10 11 12
256 258 258 259 260 261 261 262 262 263 263 263 263 263 263 262 261 258 255 253 252 251 250 249 248 247 246 245 244 244 244 244 242 241 241 241 241 241 241 240 240 240 240 239 238 237 235 234 233 233 232 230 228 227 226 225 222 222 227 236 253 257 260 268 272 275 280 292 316 329 336 338 339 346 351 351 352 358 3 2 5 10 9 9 11 12 13 12
260 260 261 261 262 262 262 262 262 262 263 263 263 263 263 263 263 262 260 257 255 253 251 250 249 249 248 246 245 244 244 244 244 242 241 241 241 241 241 241 240 239 239 239 239 239 237 235 233 233 232 230 229 227 226 226 223 222 227 230 243 254 258 267 273 273 280 296 304 309 323 332 335 339 345 350 351 356 3 2 4 10 11 10 12 14 14 13
264 265 265 266 266 266 265 264 263 263 263 263 262 262 262 262 262 262 262 261 259 257 254 253 251 250 249 248 247 245 245 244 244 243 242 241 241 241 241 241 240 240 239 239 239 239 238 236 234 233 232 231 229 228 226 226 224 222 225 227 233 249 261 268 271 269 274 287 285 293 311 321 331 334 337 348 350 354 1 2 3 10 12 12 12 15 16 16
268 269 269 270 270 270 269 268 267 265 264 263 263 263 262 262 261 261 261 261 261 260 258 256 254 252 250 248 248 246 245 244 244 244 243 242 241 241 241 241 240 240 239 239 238 238 237 236 235 233 231 230 230 229 227 226 225 222 223 227 229 236 252 259 259 265 272 273 271 288 300 305 325 329 329 344 349 352 358 1 4 8 12 13 13 15 19 19
272 272 273 274 273 273 273 272 270 269 267 265 264 263 263 262 261 261 260 260 259 259 259 258 257 255 253 251 249 247 246 245 244 244 243 242 241 240 240 240 240 239 239 239 238 238 237 236 235 234 232 230 229 229 228 226 225 223 223 226 228 228 234 246 253 261 269 268 264 272 280 290 315 320 321 336 346 352 357 359 3 7 10 12 14 16 20 21
276 277 278 278 278 277 276 276 274 273 271 269 267 265 264 263 261 261 260 260 259 258 258 258 257 257 255 254 252 249 247 246 244 244 243 242 241 240 239 239 239 239 239 238 238 238 236 235 234 233 232 230 228 228 227 226 226 224 224 224 227 230 232 240 250 257 262 262 261 256 257 271 294 306 316 329 343 352 357 359 1 6 8 11 14 15 18 22
281 282 282 282 282 281 281 280 278 277 275 273 271 269 267 265 263 262 260 260 259 258 257 256 256 256 256 255 254 253 250 247 245 244 243 243 241 240 239 238 238 238 238 238 238 238 237 235 234 233 232 230 228 227 227 226 226 225 225 226 227 232 235 237 244 252 258 262 263 254 246 254 275 291 308 324 340 351 355 358 360 4 7 9 14 15 16 20
285 286 286 286 286 285 285 284 282 281 279 277 275 272 270 268 265 263 261 260 259 258 257 256 256 255 255 254 254 254 252 250 247 245 243 242 241 240 239 238 237 237 237 237 237 238 237 236 234 233 232 231 228 227 226 225 225 225 226 226 229 233 236 237 240 243 247 252 254 247 240 245 258 275 298 317 333 347 353 356 359 1 5 10 13 15 15 17
290 290 290 290 290 290 289 288 287 286 284 282 279 277 274 271 268 265 263 261 259 258 257 255 255 254 254 253 253 253 252 251 250 247 245 242 241 240 239 238 237 236 236 236 236 237 237 236 235 234 233 232 229 227 226 224 224 225 225 225 228 232 234 235 238 238 238 242 247 242 237 241 252 267 289 307 319 338 349 354 359 359 3 11 14 15 15 17
294 294 294 294 295 294 294 293 292 290 289 286 284 282 278 275 271 267 264 262 259 258 256 255 254 253 252 252 251 251 251 251 251 250 248 245 242 240 239 238 237 236 235 235 235 235 236 235 235 234 232 231 230 227 226 223 222 223 223 225 228 230 231 234 238 239 237 240 245 240 234 236 245 258 276 294 303 323 340 349 358 357 0 12 15 16 17 18
297 297 298 299 299 299 298 297 297 295 293 290 288 286 283 279 275 271 267 263 260 257 255 254 253 252 251 251 250 250 250 250 250 250 249 248 245 243 240 238 237 236 236 235 234 234 234 234 234 233 231 231 229 227 226 223 222 221 221 223 226 227 227 231 236 236 234 237 240 236 229 227 235 248 263 279 286 306 331 344 357 354 357 11 17 17 19 19
300 301 302 303 303 303 303 302 301 299 297 295 292 289 286 283 279 275 271 266 262 258 255 252 251 250 249 248 248 248 248 248 248 248 248 248 247 245 243 240 238 236 236 235 234 233 233 232 232 232 231 230 228 226 225 224 221 220 219 220 224 225 224 227 234 235 233 235 236 234 227 224 232 243 252 265 266 279 317 333 353 355 353 7 17 19 21 21
302 304 305 306 306 306 306 306 305 303 301 299 296 293 290 286 282 279 275 271 266 262 258 253 250 248 246 245 246 246 246 246 246 246 246 247 246 246 245 243 240 238 236 235 234 233 231 231 231 230 230 229 227 225 224 223 221 220 219 218 220 222 221 223 230 233 231 230 231 231 226 221 227 236 242 254 258 256 282 309 342 355 350 0 15 19 22 23
304 306 307 308 308 309 309 309 308 307 305 303 300 297 293 289 285 281 277 273 269 266 261 257 252 249 246 244 243 242 243 244 244 244 244 244 244 245 244 244 243 240 238 236 234 233 231 230 229 229 228 228 227 225 223 222 220 219 218 218 218 218 219 220 225 228 227 227 226 227 227 222 224 233 239 250 259 257 261 283 321 357 350 351 8 19 23 25
305 307 308 309 310 311 311 311 311 310 308 307 304 301 297 293 288 284 280 276 272 268 263 259 255 250 246 243 241 240 240 240 241 242 242 242 242 242 243 243 243 242 240 238 236 233 232 230 228 228 227 227 226 224 222 221 219 219 218 218 218 218 219 220 223 226 225 225 224 226 232 229 227 232 235 240 251 254 253 263 281 348 350 344 356 17 24 25
306 307 309 310 311 312 313 313 312 312 311 310 307 304 301 296 292 287 282 278 273 269 264 260 256 252 248 244 241 239 238 238 239 239 240 240 240 240 241 241 242 242 241 240 238 235 233 231 229 228 227 227 226 225 223 220 219 218 217 217 217 218 219 220 223 226 222 222 224 228 234 230 226 230 231 232 235 241 249 254 256 292 339 338 344 9 24 27
306 308 309 310 311 312 313 313 313 313 312 311 309 306 304 299 294 289 285 279 274 269 264 260 256 252 248 245 242 240 238 237 237 237 237 238 238 239 239 240 240 240 241 241 239 237 235 233 230 228 227 226 227 226 224 221 219 218 217 216 216 217 218 218 221 224 220 220 222 222 225 224 226 226 225 228 229 231 240 245 245 250 300 326 333 352 18 28
306 308 309 309 311 312 312 313 313 313 313 311 310 308 305 301 296 291 286 281 275 270 265 260 255 252 248 245 242 240 238 237 237 237 237 237 237 237 238 238 239 239 240 240 240 239 237 235 233 230 228 227 227 226 225 223 220 218 217 215 214 214 216 215 218 220 217 217 216 213 210 214 229 229 223 229 230 230 233 237 240 234 252 299 318 330 2 24
306 307 308 309 310 311 312 312 313 312 312 311 310 308 306 302 298 292 287 281 275 270 264 259 254 251 248 244 242 240 238 237 236 236 236 236 236 236 237 238 238 239 239 239 239 239 239 237 235 233 230 228 227 226 225 224 221 219 217 215 213 212 212 212 214 217 215 213 213 211 208 210 227 231 225 230 232 229 228 232 236 232 231 263 295 305 331 15
305 306 307 308 309 310 311 311 312 312 311 310 309 308 306 302 298 293 287 281 275 269 264 258 253 250 247 244 241 239 237 236 235 235 235 235 235 235 236 237 238 238 238 238 238 238 238 238 237 235 233 230 228 226 225 223 221 219 217 216 214 212 212 211 212 214 214 214 213 213 213 214 225 232 228 229 233 232 227 226 231 233 228 237 271 288 294 347
304 305 306 307 308 309 310 310 311 311 310 309 309 307 305 302 298 293 288 281 275 269 263 258 253 249 245 243 241 238 236 235 234 234 234 234 234 234 235 236 237 238 238 238 238 238 237 237 237 237 235 232 229 227 226 224 222 220 219 217 215 214 214 213 212 212 213 214 214 216 219 218 221 227 227 224 229 234 229 224 226 228 228 232 255 276 281 293
302 304 305 306 307 308 308 309 310 310 309 308 308 306 304 302 298 292 286 280 274 268 263 258 253 248 244 241 239 237 235 234 233 233 233 233 233 233 234 234 235 236 237 237 238 238 238 237 237 237 237 235 232 228 227 226 223 222 220 218 216 215 214 213 214 213 213 212 212 213 214 211 210 213 220 219 222 229 225 221 223 223 223 224 238 260 273 275
301 302 303 304 305 306 307 307 308 308 307 307 306 306 304 302 298 292 284 278 272 267 262 257 252 246 242 239 237 235 234 232 231 231 232 232 232 232 233 233 234 235 237 237 238 238 238 238 237 238 237 236 234 231 228 227 225 223 222 220 217 216 214 213 215 214 213 212 208 206 205 203 202 202 210 216 217 220 218 218 221 220 220 219 224 241 256 264
300 301 302 303 304 305 305 306 306 306 306 306 305 305 304 301 297 291 283 275 269 265 260 255 250 245 240 236 233 232 231 230 229 229 230 230 231 231 232 233 233 235 236 237 237 237 238 238 238 238 237 237 236 233 231 228 226 224 223 222 219 218 215 212 215 215 213 212 205 201 201 200 201 201 206 212 214 215 213 216 220 218 218 218 220 229 239 249
299 300 301 302 302 303 303 304 304 304 304 304 304 304 302 300 297 291 282 273 266 261 256 252 247 242 237 233 229 227 226 225 225 225 227 228 229 230 231 232 233 234 235 236 237 237 238 238 237 237 237 237 236 235 234 230 227 225 223 222 221 219 216 213 215 216 214 213 208 204 202 201 204 206 206 209 213 214 211 215 219 218 217 214 217 224 227 235
298 299 300 300 301 301 301 302 302 302 303 302 303 303 300 297 295 291 281 271 262 255 251 247 241 236 232 229 225 222 220 219 220 220 222 224 227 229 230 232 233 235 236 236 238 238 239 238 237 237 237 237 236 236 235 233 231 227 222 223 222 219 217 214 214 216 215 214 212 208 206 207 209 210 209 207 211 215 212 212 217 219 217 212 214 221 222 225
297 298 298 299 299 300 300 300 300 301 301 301 301 300 297 295 293 290 281 269 258 248 244 240 234 228 225 223 220 218 217 216 216 217 220 222 225 227 230 232 233 235 236 236 238 239 240 240 239 238 237 236 236 236 236 235 233 229 223 223 222 220 219 215 213 216 215 213 214 211 210 211 211 212 210 204 208 215 212 209 215 220 218 210 210 218 222 223
296 296 297 298 298 298 299 299 299 299 299 299 299 297 294 292 290 288 280 267 254 242 236 233 227 221 220 219 217 216 216 216 217 218 221 224 227 230 232 235 236 237 238 237 239 240 241 242 241 240 239 237 236 235 235 235 234 231 226 224 222 219 219 216 214 216 215 214 215 213 211 213 212 213 211 204 207 214 212 209 215 221 219 210 209 216 220 223
295 295 296 297 297 297 298 298 298 298 298 298 297 294 291 289 288 285 278 265 251 239 232 230 227 222 221 220 219 219 218 219 221 222 226 228 232 236 238 240 241 242 243 242 242 242 241 242 242 242 241 240 237 235 234 235 234 232 229 227 223 220 220 218 216 217 215 214 216 214 212 213 213 213 212 207 207 213 214 212 215 220 219 211 210 216 217 221
294 295 296 296 297 297 298 298 298 297 297 297 295 292 290 288 286 282 277 266 251 239 232 231 230 227 225 224 223 223 223 224 225 227 230 234 238 242 245 248 249 250 250 249 248 247 246 245 243 242 242 242 241 237 235 234 233 233 232 229 225 221 220 219 218 218 216 214 216 215 212 213 212 211 210 206 207 212 214 214 217 219 218 211 209 215 217 218
294 295 296 297 297 298 298 298 298 297 297 296 293 291 289 287 284 280 276 267 254 242 234 232 233 231 229 228 227 227 228 228 230 232 235 239 244 248 252 255 257 258 258 257 256 253 253 251 247 245 243 242 242 240 237 234 232 232 232 230 228 223 220 220 218 218 217 216 217 216 213 213 213 211 210 206 206 212 214 214 217 218 217 213 207 212 217 216
295 296 297 298 298 299 299 299 299 298 297 295 291 290 288 286 284 279 274 266 256 245 236 233 234 234 233 231 231 231 231 232 233 237 239 243 247 252 256 260 262 265 265 265 262 259 259 258 252 249 246 243 242 241 239 236 233 231 230 230 229 225 221 220 218 217 218 217 216 216 214 213 213 211 211 208 206 211 213 213 216 217 216 214 210 211 215 214
296 297 297 299 299 299 300 301 300 299 297 294 291 288 287 286 284 280 273 265 257 250 241 236 236 236 236 235 235 234 235 235 236 238 242 246 250 254 260 264 266 269 271 272 270 266 265 264 259 254 251 247 242 240 239 237 234 232 230 228 229 227 223 221 218 217 218 217 216 217 215 213 212 210 210 208 205 208 212 213 216 218 215 213 213 214 214 211
295 295 295 297 298 299 300 301 301 300 296 293 290 287 285 285 285 282 277 269 261 253 246 242 239 239 239 238 239 238 238 239 240 241 243 247 252 256 262 267 271 274 277 278 277 274 271 270 265 259 256 251 245 240 238 236 234 232 230 228 228 227 224 222 219 217 217 217 216 217 216 213 212 210 209 208 205 207 211 212 216 220 216 213 214 216 215 211
294 293 292 293 294 295 298 300 301 299 296 292 288 285 284 285 285 284 282 276 266 257 250 247 244 242 241 241 241 241 240 241 242 244 246 249 254 258 263 268 272 276 280 281 281 279 276 274 270 264 258 253 248 242 239 236 234 232 230 228 227 227 225 223 220 218 217 217 216 217 217 214 212 211 209 207 205 207 208 207 213 219 218 215 215 216 217 215
293 293 292 291 290 290 291 295 297 297 294 290 286 283 281 283 285 286 286 281 270 261 255 251 249 247 245 243 242 243 243 242 244 245 247 251 255 259 264 269 273 278 281 282 283 282 280 277 273 265 258 254 249 245 241 237 234 232 230 228 227 226 225 224 222 218 216 215 215 215 216 214 212 211 210 207 205 208 206 201 209 218 219 218 217 216 218 218
290 292 293 291 289 287 286 287 290 291 291 287 283 281 278 279 281 283 286 284 274 266 260 255 252 250 249 247 244 243 244 244 245 246 248 251 256 260 264 269 274 279 282 284 285 285 282 278 270 262 256 253 250 247 244 240 236 232 230 228 226 225 223 223 222 219 216 215 214 214 214 213 212 211 210 208 206 209 208 201 207 216 217 218 219 216 218 219
286 287 289 290 289 287 285 284 282 282 284 283 280 277 275 274 276 277 279 280 276 272 266 261 257 254 253 252 245 242 245 245 245 247 248 250 255 261 265 270 276 281 284 286 287 286 283 276 265 258 256 253 251 249 246 244 240 235 231 228 226 224 222 222 222 220 217 215 214 214 214 213 212 210 209 207 205 208 211 206 205 212 215 218 221 218 217 219
284 284 285 285 285 286 286 284 280 277 276 277 276 274 272 271 271 272 272 273 273 273 270 265 261 259 257 254 247 242 244 245 245 246 247 251 256 262 266 271 277 282 285 287 288 287 280 270 259 256 256 254 253 251 248 246 242 239 234 229 226 225 222 220 221 221 218 216 214 213 213 212 213 211 209 208 206 207 213 212 206 210 215 218 223 222 219 220
281 281 282 280 279 282 284 284 281 276 272 270 271 271 271 268 267 269 269 268 269 269 268 265 262 260 259 255 250 244 242 244 245 246 247 252 259 264 269 273 277 283 285 288 289 285 273 262 257 257 257 257 255 253 251 247 244 242 238 231 227 225 223 220 220 221 219 216 214 213 213 211 212 213 210 209 207 205 212 215 209 210 215 216 221 224 222 220
283 280 278 277 276 276 278 280 280 278 273 270 268 268 268 267 266 267 266 266 266 266 265 264 262 260 258 255 253 248 245 245 246 248 249 253 258 264 270 274 278 282 285 287 288 279 264 258 260 260 259 258 257 254 253 251 247 245 241 236 230 226 223 220 218 218 218 217 214 213 212 211 211 212 210 208 207 205 209 215 212 211 213 213 218 225 224 221
289 283 277 274 274 273 273 275 277 277 275 273 270 267 266 267 266 265 266 265 264 264 264 264 263 261 259 258 255 250 249 249 249 251 253 255 258 263 270 274 277 280 282 286 283 271 261 260 261 262 261 260 258 257 256 254 251 248 244 240 233 227 225 222 218 216 216 216 215 213 211 210 211 212 210 209 208 206 208 213 211 207 208 209 214 223 225 222
291 289 283 276 272 270 270 270 271 274 274 273 272 269 268 268 267 266 266 265 264 264 264 265 264 264 262 260 257 253 252 253 253 254 256 258 260 263 268 273 277 279 281 282 276 263 258 261 262 263 264 262 261 260 258 256 254 250 246 242 237 230 226 224 220 217 215 215 215 213 211 210 210 211 211 209 208 206 207 211 211 206 204 205 210 220 226 225
289 289 288 281 274 269 267 267 267 268 270 271 272 272 270 270 270 268 266 266 265 264 265 265 266 267 265 262 259 256 254 254 254 256 258 260 261 262 267 271 273 276 279 277 268 259 257 261 263 265 265 265 264 263 261 257 254 252 248 244 240 234 228 224 221 218 215 214 214 212 210 210 210 211 212 210 208 207 207 210 212 210 205 203 205 213 224 228
287 288 287 285 279 270 264 263 263 263 265 268 269 271 272 273 273 271 268 266 265 264 264 265 266 266 265 263 261 259 256 255 255 256 258 259 260 261 266 269 268 272 275 269 258 256 258 260 263 265 265 266 266 265 263 260 256 255 252 246 241 236 231 225 221 218 215 214 214 212 209 210 210 209 211 210 209 208 208 208 213 213 207 202 202 206 214 224
285 286 286 285 283 273 262 258 260 260 261 264 266 268 272 273 273 272 269 265 264 264 264 263 263 263 263 262 262 261 259 258 257 256 256 258 259 259 262 266 267 268 270 264 253 253 258 260 263 266 267 267 266 265 264 262 258 255 254 251 244 238 233 227 221 218 215 213 213 212 209 210 208 206 208 208 208 209 208 209 212 213 208 201 201 205 207 214
284 284 285 284 281 273 262 255 256 257 256 257 261 265 269 271 271 270 268 264 262 260 260 261 260 261 263 264 264 263 262 261 261 259 258 258 260 260 258 260 264 265 262 256 252 253 256 260 264 267 268 267 265 264 263 261 258 255 254 253 247 240 234 229 223 218 215 213 213 212 210 210 208 206 206 206 206 207 209 211 213 214 211 205 201 205 208 211
284 284 284 283 279 272 263 254 250 252 252 252 257 261 264 267 269 267 264 262 258 254 258 262 261 261 265 266 265 266 265 264 262 262 261 260 260 260 257 254 256 258 254 246 248 254 255 259 265 269 271 270 268 266 263 261 259 255 252 252 249 243 235 229 224 220 215 212 212 212 210 210 209 206 205 205 204 205 206 210 214 215 216 214 208 207 209 214
284 284 284 283 276 270 262 251 245 247 249 249 251 255 259 263 264 262 257 255 258 256 257 263 265 266 268 269 269 268 266 264 263 261 261 261 258 257 256 252 246 247 247 241 242 250 254 258 265 272 276 276 272 268 265 262 259 256 252 250 249 245 236 228 222 219 216 212 211 212 211 210 209 207 205 204 203 204 205 206 211 214 216 220 218 212 211 213
284 285 285 281 274 268 258 245 239 242 244 245 246 250 254 257 258 258 254 252 259 260 256 262 269 272 271 271 270 267 264 265 266 263 257 255 253 250 250 247 238 236 241 241 239 245 252 259 266 276 282 281 277 272 267 263 260 256 252 247 247 247 239 230 222 218 216 213 212 212 211 210 210 208 205 203 202 203 205 205 208 210 214 223 225 218 214 216
284 286 284 278 270 262 250 237 234 237 239 241 242 244 249 252 253 255 254 253 256 260 260 265 272 274 271 270 269 269 270 270 268 262 252 245 245 243 240 238 233 230 235 239 241 245 252 260 269 280 286 286 282 276 269 264 260 255 252 246 243 245 239 232 226 219 215 213 212 212 211 211 211 209 207 205 201 201 204 206 206 207 211 222 225 219 217 219